Time[GMT],salinity[psu](1m),sigma_t[kg/m^3](1m),conductivity[msiemens/cm](1m),temperature[C](1m)
2015-06-04 12:00,31.528,24.356,34.062,9.29
2015-06-04 14:00,31.481,24.252,34.386,9.72
2015-06-04 15:00,31.369,24.109,34.568,10.06
2015-06-04 16:00,31.116,23.855,34.607,10.40
2015-06-04 17:00,31.310,23.966,35.009,10.64
2015-06-04 18:00,31.061,23.784,34.698,10.57
2015-06-04 19:00,31.041,23.721,34.918,10.85
2015-06-04 20:00,31.189,23.873,34.878,10.63
2015-06-04 21:00,31.128,23.785,35.023,10.87
2015-06-04 23:00,31.217,23.868,35.044,10.79
2015-06-05 00:00,31.280,23.958,34.901,10.55
2015-06-05 01:00,31.451,24.169,34.666,10.08
2015-06-05 02:00,31.509,24.274,34.404,9.71
2015-06-05 03:00,31.505,24.303,34.228,9.51
2015-06-05 04:00,31.602,24.315,34.669,9.91
2015-06-05 05:00,31.638,24.338,34.730,9.94
2015-06-05 06:00,31.601,24.278,34.858,10.13
2015-06-05 07:00,31.570,24.236,34.923,10.24
2015-06-05 09:00,31.636,24.319,34.824,10.05
2015-06-05 10:00,31.614,24.296,34.828,10.08
2015-06-05 11:00,31.632,24.302,34.889,10.13
2015-06-05 12:00,31.638,24.302,34.921,10.16
2015-06-05 13:00,31.628,24.284,34.963,10.22
2015-06-05 14:00,30.957,23.802,34.082,9.97
2015-06-05 15:00,31.127,23.925,34.301,10.03
2015-06-05 16:00,30.613,23.440,34.221,10.54
2015-06-05 18:00,31.047,23.696,35.070,11.02
2015-06-05 19:00,31.108,23.728,35.209,11.11
2015-06-05 20:00,31.147,23.781,35.137,10.98
2015-06-05 21:00,30.959,23.642,34.912,10.94
2015-06-05 22:00,31.072,23.809,34.623,10.47
2015-06-05 23:00,31.209,23.934,34.666,10.36
2015-06-06 00:00,31.229,23.955,34.660,10.33
2015-06-06 01:00,31.216,23.948,34.630,10.31
2015-06-06 03:00,31.148,23.892,34.579,10.33
2015-06-06 04:00,31.182,23.928,34.562,10.27
2015-06-06 05:00,31.292,24.036,34.560,10.14
2015-06-06 06:00,31.421,24.162,34.550,9.98
2015-06-06 07:00,31.529,24.274,34.510,9.81
2015-06-06 08:00,31.571,24.206,35.080,10.42
2015-06-06 09:00,31.634,24.260,35.117,10.39
2015-06-06 10:00,31.592,24.276,34.824,10.10
2015-06-06 11:00,31.634,24.282,35.004,10.26
2015-06-06 13:00,31.643,24.237,35.283,10.57
2015-06-06 14:00,31.602,24.262,34.946,10.23
2015-06-06 15:00,31.451,24.164,34.692,10.11
2015-06-06 16:00,31.473,24.177,34.740,10.14
2015-06-06 17:00,31.612,24.267,34.974,10.25
2015-06-06 18:00,31.517,24.128,35.208,10.63
2015-06-06 19:00,31.377,23.998,35.180,10.76
2015-06-06 20:00,31.377,23.977,35.284,10.88
2015-06-06 22:00,31.453,23.966,35.709,11.28
2015-06-06 23:00,31.364,23.765,36.254,12.01
2015-06-07 00:00,31.362,23.853,35.825,11.52
2015-06-07 01:00,31.396,23.945,35.538,11.15
2015-06-07 02:00,31.362,23.876,35.712,11.39
2015-06-07 03:00,31.382,23.893,35.723,11.38
2015-06-07 04:00,31.402,23.916,35.709,11.34
2015-06-07 05:00,31.366,23.925,35.490,11.13
2015-06-07 06:00,31.439,24.020,35.373,10.91
2015-06-07 08:00,31.544,24.146,35.253,10.65
2015-06-07 09:00,31.603,24.204,35.251,10.58
2015-06-07 10:00,31.650,24.273,35.133,10.39
2015-06-07 11:00,31.619,24.257,35.059,10.34
2015-06-07 12:00,31.461,24.095,35.100,10.57
2015-06-07 13:00,31.437,24.048,35.223,10.74
2015-06-07 14:00,31.307,23.745,36.082,11.88
2015-06-07 15:00,31.015,23.546,35.649,11.73
2015-06-07 17:00,31.142,23.489,36.511,12.57
2015-06-07 18:00,31.190,23.551,36.448,12.44
2015-06-07 19:00,31.210,23.616,36.233,12.17
2015-06-07 20:00,31.230,23.641,36.211,12.12
2015-06-07 21:00,31.267,23.681,36.197,12.06
2015-06-07 22:00,31.361,23.810,36.024,11.75
2015-06-07 23:00,31.383,23.802,36.169,11.89
2015-06-08 00:00,31.499,23.975,35.887,11.43
2015-06-08 01:00,31.612,24.182,35.408,10.75
2015-06-08 03:00,31.615,24.192,35.377,10.71
2015-06-08 04:00,31.602,24.167,35.433,10.79
2015-06-08 05:00,31.585,24.141,35.486,10.87
2015-06-08 06:00,31.603,24.160,35.478,10.84
2015-06-08 07:00,31.607,24.156,35.517,10.88
2015-06-08 08:00,31.621,24.168,35.522,10.87
2015-06-08 09:00,31.655,24.183,35.618,10.94
2015-06-08 10:00,31.639,24.146,35.724,11.08
2015-06-08 12:00,31.636,24.156,35.660,11.01
2015-06-08 13:00,31.637,24.160,35.643,10.99
2015-06-08 14:00,31.618,24.133,35.685,11.06
2015-06-08 15:00,31.596,24.102,35.733,11.14
2015-06-08 16:00,,,,
2015-06-08 17:00,,,,
2015-06-08 18:00,31.569,24.069,35.766,11.21
2015-06-08 19:00,31.577,24.064,35.827,11.27
2015-06-08 21:00,31.585,24.051,35.931,11.38
2015-06-08 23:00,31.437,23.943,35.745,11.34
2015-06-09 00:00,31.448,23.955,35.739,11.32
2015-06-09 01:00,31.472,23.986,35.702,11.25
2015-06-09 02:00,31.518,24.031,35.706,11.20
2015-06-09 03:00,31.526,24.040,35.696,11.18
2015-06-09 04:00,31.533,24.029,35.791,11.28
2015-06-09 05:00,31.517,24.021,35.748,11.25
2015-06-09 07:00,31.518,24.029,35.714,11.21
2015-06-09 08:00,31.537,24.044,35.734,11.21
2015-06-09 09:00,31.563,24.062,35.769,11.22
2015-06-09 10:00,31.573,24.074,35.762,11.20
2015-06-09 11:00,31.570,24.069,35.767,11.21
2015-06-09 12:00,31.543,24.043,35.766,11.24
2015-06-09 13:00,31.537,24.040,35.751,11.23
2015-06-09 14:00,31.569,24.067,35.775,11.22
2015-06-09 16:00,31.613,24.050,36.074,11.51
2015-06-09 17:00,31.571,24.010,36.066,11.55
2015-06-09 18:00,31.570,24.016,36.030,11.51
2015-06-09 19:00,31.581,24.028,36.023,11.49
2015-06-09 20:00,31.591,24.018,36.121,11.59
2015-06-09 21:00,31.593,24.013,36.159,11.63
2015-06-09 22:00,31.615,24.031,36.172,11.62
2015-06-09 23:00,31.666,24.058,36.286,11.69
2015-06-10 00:00,31.706,24.049,36.521,11.91
2015-06-10 02:00,31.714,24.055,36.530,11.91
2015-06-10 03:00,31.710,24.063,36.473,11.85
2015-06-10 04:00,31.640,24.047,36.216,11.64
2015-06-10 05:00,31.647,24.047,36.249,11.67
2015-06-10 06:00,31.681,24.061,36.346,11.74
2015-06-10 07:00,31.690,24.069,36.346,11.73
2015-06-10 08:00,31.687,24.123,36.071,11.42
2015-06-10 09:00,31.686,24.163,35.868,11.19
2015-06-10 11:00,31.707,24.220,35.688,10.96
2015-06-10 12:00,31.702,24.223,35.648,10.92
2015-06-10 13:00,31.709,24.211,35.742,11.02
2015-06-10 14:00,31.707,24.131,36.126,11.46
2015-06-10 15:00,31.696,24.050,36.467,11.86
2015-06-10 16:00,31.687,23.965,36.828,12.28
2015-06-10 17:00,31.673,23.929,36.938,12.42
2015-06-10 18:00,31.696,23.922,37.077,12.55
2015-06-10 19:00,31.696,23.920,37.086,12.56
2015-06-10 21:00,31.695,23.957,36.908,12.36
2015-06-10 23:00,31.698,23.925,37.070,12.54
2015-06-11 00:00,31.688,23.821,37.503,13.04
2015-06-11 01:00,31.693,23.837,37.455,12.98
2015-06-11 02:00,31.689,23.859,37.335,12.85
2015-06-11 03:00,31.705,23.886,37.281,12.77
2015-06-11 04:00,31.724,23.970,36.982,12.41
2015-06-11 06:00,31.727,24.023,36.746,12.14
2015-06-11 07:00,31.726,24.007,36.816,12.22
2015-06-11 08:00,31.722,23.996,36.847,12.26
2015-06-11 09:00,31.712,24.032,36.634,12.03
2015-06-11 10:00,31.707,24.043,36.558,11.95
2015-06-11 11:00,31.715,24.081,36.407,11.77
2015-06-11 12:00,31.718,24.071,36.472,11.84
2015-06-11 13:00,31.733,24.046,36.664,12.04
2015-06-11 15:00,31.733,24.012,36.823,12.22
2015-06-11 16:00,31.753,23.970,37.119,12.53
2015-06-11 17:00,31.769,23.957,37.251,12.66
2015-06-11 18:00,31.773,23.958,37.264,12.67
2015-06-11 19:00,31.767,23.952,37.267,12.68
2015-06-11 20:00,31.740,23.908,37.345,12.80
2015-06-11 21:00,31.739,23.895,37.397,12.86
2015-06-11 22:00,31.723,24.018,36.751,12.15
2015-06-11 23:00,31.714,24.046,36.574,11.96
2015-06-12 01:00,31.670,24.067,36.264,11.66
2015-06-12 02:00,31.677,24.079,36.236,11.62
2015-06-12 03:00,31.683,24.088,36.225,11.60
2015-06-12 04:00,31.703,24.098,36.272,11.63
2015-06-12 05:00,31.701,24.100,36.252,11.61
2015-06-12 06:00,31.631,24.058,36.119,11.54
2015-06-12 07:00,31.570,23.993,36.144,11.64
2015-06-12 08:00,31.554,23.948,36.285,11.82
2015-06-12 10:00,31.543,23.913,36.396,11.96
2015-06-12 11:00,31.549,23.909,36.447,12.01
2015-06-12 12:00,31.549,23.932,36.332,11.88
2015-06-12 13:00,31.568,23.922,36.475,12.02
2015-06-12 14:00,31.526,23.864,36.555,12.16
2015-06-12 15:00,31.677,23.886,37.154,12.66
2015-06-12 16:00,31.706,23.800,37.682,13.22
2015-06-12 17:00,31.721,23.678,38.297,13.89
2015-06-12 18:00,31.860,23.923,37.829,13.20
2015-06-12 20:00,32.072,24.000,38.452,13.64
2015-06-12 21:00,31.720,23.879,37.386,12.87
2015-06-12 22:00,31.698,23.862,37.363,12.87
2015-06-12 23:00,31.695,23.949,36.943,12.40
2015-06-13 00:00,31.672,23.855,37.273,12.80
2015-06-13 01:00,31.677,23.928,36.959,12.44
2015-06-13 02:00,31.692,23.996,36.710,12.14
2015-06-13 03:00,31.693,23.979,36.790,12.23
2015-06-13 05:00,31.755,23.883,37.530,12.99
2015-06-13 06:00,31.748,23.846,37.665,13.15
2015-06-13 07:00,31.746,23.897,37.422,12.88
2015-06-13 08:00,31.742,23.927,37.267,12.71
2015-06-13 09:00,31.760,23.956,37.215,12.63
2015-06-13 10:00,31.750,23.958,37.160,12.58
2015-06-13 11:00,31.729,23.958,37.058,12.49
2015-06-13 12:00,31.728,23.984,36.933,12.35
2015-06-13 13:00,31.717,23.991,36.851,12.27
2015-06-13 15:00,31.563,23.815,36.954,12.57
2015-06-13 16:00,31.536,23.678,37.456,13.17
2015-06-13 17:00,31.566,23.621,37.853,13.58
2015-06-13 18:00,31.445,23.257,38.889,14.89
2015-06-13 19:00,31.506,23.479,38.206,14.05
2015-06-13 20:00,31.522,23.427,38.500,14.36
2015-06-13 21:00,31.488,23.514,37.973,13.81
2015-06-13 22:00,31.485,23.627,37.455,13.23
2015-06-14 00:00,31.528,23.703,37.306,13.01
2015-06-14 01:00,31.531,23.698,37.345,13.05
2015-06-14 02:00,31.667,23.718,37.872,13.48
2015-06-14 03:00,31.741,23.789,37.889,13.41
2015-06-14 04:00,31.725,23.680,38.301,13.89
2015-06-14 05:00,31.724,23.645,38.452,14.06
2015-06-14 06:00,31.728,23.726,38.117,13.68
2015-06-14 07:00,31.730,23.775,37.904,13.44
2015-06-14 08:00,31.632,23.805,37.319,12.90
2015-06-14 10:00,31.588,23.751,37.361,13.00
2015-06-14 11:00,31.562,23.745,37.272,12.93
2015-06-14 12:00,31.483,23.668,37.258,13.01
2015-06-14 13:00,31.421,23.550,37.510,13.37
2015-06-14 14:00,31.410,23.523,37.578,13.46
2015-06-14 15:00,31.409,23.497,37.692,13.59
2015-06-14 16:00,31.488,23.558,37.778,13.59
2015-06-14 17:00,31.271,23.312,37.888,13.98
2015-06-14 19:00,31.486,23.418,38.380,14.27
2015-06-14 20:00,31.502,23.337,38.800,14.72
2015-06-14 21:00,31.452,23.359,38.486,14.43
2015-06-14 22:00,31.508,23.584,37.755,13.54
2015-06-14 23:00,31.506,23.574,37.788,13.58
2015-06-15 00:00,31.526,23.649,37.543,13.28
2015-06-15 01:00,31.509,23.677,37.339,13.07
2015-06-15 02:00,31.501,23.673,37.322,13.06
2015-06-15 04:00,31.512,23.730,37.113,12.81
2015-06-15 05:00,31.539,23.739,37.194,12.87
2015-06-15 06:00,31.553,23.697,37.448,13.14
2015-06-15 07:00,31.566,23.704,37.480,13.16
2015-06-15 08:00,31.572,23.730,37.389,13.05
2015-06-15 09:00,31.579,23.743,37.361,13.01
2015-06-15 10:00,31.574,23.737,37.364,13.02
2015-06-15 11:00,31.560,23.739,37.287,12.95
2015-06-15 12:00,31.539,23.727,37.247,12.93
2015-06-15 14:00,31.550,23.732,37.277,12.95
2015-06-15 15:00,31.542,23.722,37.286,12.97
2015-06-15 16:00,31.554,23.731,37.299,12.97
2015-06-15 17:00,31.565,23.724,37.381,13.05
2015-06-15 18:00,31.612,23.666,37.858,13.53
2015-06-15 19:00,31.625,23.636,38.050,13.73
2015-06-15 20:00,31.619,23.676,37.848,13.51
2015-06-15 21:00,31.623,23.700,37.754,13.40
2015-06-15 23:00,31.550,23.734,37.268,12.94
2015-06-16 00:00,31.484,23.725,37.003,12.72
2015-06-16 01:00,31.471,23.698,37.069,12.81
2015-06-16 02:00,31.473,23.701,37.062,12.80
2015-06-16 03:00,31.476,23.714,37.022,12.75
2015-06-16 04:00,31.486,23.727,37.006,12.72
2015-06-16 05:00,31.533,23.730,37.205,12.89
2015-06-16 06:00,31.588,23.705,37.574,13.24
2015-06-16 07:00,31.590,23.712,37.550,13.21
2015-06-16 09:00,31.631,23.665,37.950,13.61
2015-06-16 10:00,31.635,23.662,37.981,13.64
2015-06-16 11:00,31.631,23.656,37.985,13.65
2015-06-16 12:00,31.610,23.682,37.775,13.44
2015-06-16 13:00,31.585,23.601,38.025,13.75
2015-06-16 14:00,31.579,23.602,37.991,13.72
2015-06-16 15:00,31.530,23.501,38.214,14.03
2015-06-16 16:00,31.601,23.493,38.569,14.34
2015-06-16 18:00,31.623,23.297,39.492,15.34
2015-06-16 19:00,31.554,23.402,38.750,14.60
2015-06-16 20:00,31.474,23.330,38.707,14.65
2015-06-16 21:00,31.508,23.472,38.244,14.09
2015-06-16 22:00,31.485,23.372,38.576,14.49
2015-06-16 23:00,31.412,23.338,38.397,14.38
2015-06-17 00:00,31.454,23.296,38.765,14.74
2015-06-17 01:00,31.474,23.358,38.591,14.52
2015-06-17 03:00,31.582,23.371,39.005,14.85
2015-06-17 04:00,31.629,23.477,38.761,14.52
2015-06-17 05:00,31.637,23.452,38.905,14.67
2015-06-17 06:00,31.606,23.542,38.378,14.12
2015-06-17 07:00,31.636,23.517,38.616,14.35
2015-06-17 08:00,31.644,23.563,38.455,14.16
2015-06-17 09:00,31.651,23.618,38.248,13.92
2015-06-17 10:00,31.653,23.609,38.295,13.97
2015-06-17 11:00,31.677,23.720,37.910,13.51
2015-06-17 13:00,31.682,23.688,38.076,13.69
2015-06-17 14:00,31.614,23.730,37.575,13.21
2015-06-17 15:00,31.629,23.735,37.627,13.25
2015-06-17 16:00,31.623,23.696,37.772,13.42
2015-06-17 17:00,31.617,23.688,37.783,13.44
2015-06-17 18:00,31.481,23.510,37.956,13.80
2015-06-17 19:00,31.554,23.621,37.795,13.53
2015-06-17 20:00,31.344,23.305,38.243,14.29
2015-06-17 22:00,31.682,23.537,38.739,14.43
2015-06-17 23:00,31.682,23.582,38.541,14.21
2015-06-18 00:00,31.675,23.571,38.561,14.24
2015-06-18 01:00,31.669,23.582,38.482,14.16
2015-06-18 02:00,31.673,23.596,38.442,14.11
2015-06-18 03:00,31.637,23.619,38.179,13.86
2015-06-18 04:00,31.615,23.614,38.102,13.80
2015-06-18 05:00,31.585,23.601,38.025,13.75
2015-06-18 06:00,31.632,23.601,38.236,13.93
2015-06-18 08:00,31.636,23.654,38.017,13.68
2015-06-18 09:00,31.651,23.670,38.016,13.66
2015-06-18 10:00,31.658,23.677,38.014,13.65
2015-06-18 11:00,31.658,23.675,38.023,13.66
2015-06-18 12:00,31.637,23.693,37.849,13.49
2015-06-18 13:00,31.411,23.475,37.801,13.71
2015-06-18 14:00,31.440,23.503,37.806,13.68
2015-06-18 15:00,31.428,23.429,38.077,14.00
2015-06-18 17:00,31.448,23.391,38.330,14.26
2015-06-18 18:00,31.457,23.455,38.090,13.98
2015-06-18 19:00,31.465,23.474,38.046,13.92
2015-06-18 20:00,31.523,23.484,38.260,14.09
2015-06-18 21:00,31.631,23.524,38.566,14.30
2015-06-18 22:00,31.657,23.590,38.398,14.08
2015-06-18 23:00,31.678,23.616,38.376,14.03
2015-06-19 00:00,31.680,23.648,38.244,13.88
2015-06-19 01:00,31.681,23.675,38.128,13.75
2015-06-19 03:00,31.675,23.713,37.935,13.54
2015-06-19 04:00,31.669,23.739,37.785,13.38
2015-06-19 05:00,31.669,23.739,37.785,13.38
2015-06-19 06:00,31.666,23.721,37.853,13.46
2015-06-19 07:00,31.676,23.699,37.998,13.61
2015-06-19 08:00,31.680,23.679,38.110,13.73
2015-06-19 09:00,31.678,23.655,38.206,13.84
2015-06-19 10:00,31.688,23.648,38.279,13.91
2015-06-19 12:00,31.692,23.669,38.203,13.82
2015-06-19 13:00,31.704,23.679,38.216,13.82
2015-06-19 14:00,31.691,23.624,38.399,14.04
2015-06-19 15:00,31.680,23.599,38.458,14.12
2015-06-19 16:00,31.651,23.583,38.400,14.09
2015-06-19 17:00,31.693,23.613,38.455,14.10
2015-06-19 18:00,31.522,23.562,37.912,13.70
2015-06-19 19:00,31.712,23.743,37.965,13.53
2015-06-19 21:00,31.497,23.484,38.143,13.99
2015-06-19 22:00,31.636,23.238,39.796,15.66
2015-06-19 23:00,31.610,23.113,40.192,16.13
2015-06-20 00:00,31.610,23.132,40.120,16.05
2015-06-20 01:00,31.708,23.324,39.750,15.52
2015-06-20 02:00,31.608,23.176,39.927,15.84
2015-06-20 03:00,31.645,23.216,39.924,15.79
2015-06-20 04:00,31.640,23.197,39.982,15.86
2015-06-20 05:00,31.671,23.309,39.655,15.46
2015-06-20 07:00,31.698,23.672,38.218,13.83
2015-06-20 08:00,31.691,23.701,38.059,13.66
2015-06-20 09:00,31.678,23.745,37.804,13.39
2015-06-20 10:00,31.680,23.752,37.779,13.36
2015-06-20 11:00,31.684,23.749,37.810,13.39
2015-06-20 12:00,31.675,23.713,37.935,13.54
2015-06-20 13:00,31.675,23.640,38.256,13.90
2015-06-20 14:00,31.689,23.645,38.298,13.93
2015-06-20 16:00,31.672,23.453,39.051,14.79
2015-06-20 17:00,31.622,23.415,38.996,14.79
2015-06-20 18:00,31.648,23.433,39.034,14.80
2015-06-20 19:00,31.646,23.454,38.932,14.69
2015-06-20 20:00,31.649,23.542,38.568,14.28
2015-06-20 21:00,31.668,23.604,38.383,14.05
2015-06-20 22:00,31.673,23.584,38.496,14.17
2015-06-20 23:00,31.655,23.557,38.530,14.23
2015-06-21 00:00,31.670,23.594,38.439,14.11
2015-06-21 02:00,31.660,23.571,38.490,14.18
2015-06-21 03:00,31.672,23.572,38.539,14.22
2015-06-21 04:00,31.678,23.579,38.537,14.21
2015-06-21 05:00,31.680,23.586,38.512,14.18
2015-06-21 06:00,31.684,23.618,38.391,14.04
2015-06-21 07:00,31.673,23.639,38.254,13.90
2015-06-21 08:00,31.684,23.676,38.141,13.76
2015-06-21 09:00,31.658,23.686,37.979,13.61
2015-06-21 11:00,31.622,23.643,38.002,13.68
2015-06-21 12:00,31.596,23.603,38.063,13.78
2015-06-21 13:00,31.543,23.530,38.148,13.94
2015-06-21 14:00,31.554,23.510,38.285,14.08
2015-06-21 15:00,31.549,23.494,38.333,14.14
2015-06-21 16:00,31.507,23.457,38.305,14.16
2015-06-21 17:00,31.489,23.442,38.295,14.17
2015-06-21 18:00,31.411,23.373,38.245,14.21
2015-06-21 19:00,31.451,23.316,38.663,14.63
2015-06-21 21:00,31.536,23.355,38.874,14.76
2015-06-21 22:00,31.549,23.373,38.852,14.72
2015-06-21 23:00,31.550,23.369,38.871,14.74
2015-06-22 00:00,31.554,23.414,38.696,14.54
2015-06-22 01:00,31.539,23.393,38.725,14.59
2015-06-22 02:00,31.550,23.422,38.647,14.49
2015-06-22 03:00,31.517,23.386,38.656,14.54
2015-06-22 04:00,31.494,23.422,38.398,14.28
2015-06-22 06:00,31.326,23.349,37.975,14.01
2015-06-22 07:00,31.291,23.292,38.060,14.15
2015-06-22 08:00,31.298,23.305,38.042,14.12
2015-06-22 09:00,31.315,23.364,37.856,13.89
2015-06-22 10:00,31.447,23.480,37.937,13.82
2015-06-22 11:00,31.496,23.416,38.436,14.32
2015-06-22 12:00,31.435,23.315,38.601,14.58
2015-06-22 13:00,31.527,23.354,38.837,14.73
2015-06-22 15:00,31.530,23.256,39.262,15.20
2015-06-22 16:00,31.534,23.211,39.464,15.42
2015-06-22 17:00,31.548,23.229,39.453,15.39
2015-06-22 18:00,31.532,23.188,39.552,15.52
2015-06-22 19:00,31.549,23.193,39.608,15.56
2015-06-22 20:00,31.528,23.216,39.422,15.38
2015-06-22 21:00,31.513,23.141,39.666,15.67
2015-06-22 22:00,31.538,23.125,39.839,15.83
2015-06-22 23:00,31.538,23.125,39.839,15.83
2015-06-23 01:00,31.541,23.187,39.599,15.56
2015-06-23 02:00,31.544,23.207,39.530,15.48
2015-06-23 03:00,31.539,23.216,39.470,15.42
2015-06-23 04:00,31.533,23.217,39.436,15.39
2015-06-23 05:00,31.547,23.200,39.569,15.52
2015-06-23 06:00,31.555,23.195,39.623,15.57
2015-06-23 07:00,31.566,23.224,39.555,15.48
2015-06-23 08:00,31.567,23.256,39.420,15.33
2015-06-23 10:00,31.572,23.260,39.426,15.33
2015-06-23 11:00,31.574,23.257,39.446,15.35
2015-06-23 12:00,31.585,23.247,39.540,15.44
2015-06-23 13:00,31.578,23.194,39.731,15.66
2015-06-23 14:00,31.585,23.229,39.612,15.52
2015-06-23 15:00,31.570,23.224,39.568,15.49
2015-06-23 16:00,31.574,23.236,39.537,15.45
2015-06-23 17:00,,,,
2015-06-23 18:00,31.512,23.160,39.584,15.58
2015-06-23 20:00,31.555,23.193,39.632,15.58
2015-06-23 21:00,31.567,23.244,39.475,15.39
2015-06-23 22:00,31.574,23.277,39.365,15.26
2015-06-23 23:00,31.577,23.316,39.216,15.09
2015-06-24 00:00,31.582,23.261,39.464,15.36
2015-06-24 01:00,31.555,23.193,39.632,15.58
2015-06-24 02:00,31.557,23.253,39.391,15.31
2015-06-24 03:00,31.565,23.446,38.610,14.43
2015-06-24 05:00,31.554,23.452,38.535,14.36
2015-06-24 06:00,31.571,23.544,38.215,13.98
2015-06-24 07:00,31.582,23.637,37.852,13.56
2015-06-24 08:00,31.561,23.621,37.830,13.56
2015-06-24 09:00,31.548,23.658,37.602,13.32
2015-06-24 10:00,31.556,23.701,37.442,13.13
2015-06-24 11:00,31.549,23.725,37.302,12.98
2015-06-24 12:00,31.560,23.734,37.314,12.98
2015-06-24 13:00,31.555,23.709,37.406,13.09
2015-06-24 15:00,31.555,23.608,37.859,13.60
2015-06-24 16:00,31.566,23.604,37.924,13.66
2015-06-24 17:00,31.327,23.347,37.984,14.02
2015-06-24 18:00,31.293,23.134,38.747,14.92
2015-06-24 19:00,31.278,23.099,38.829,15.03
2015-06-24 20:00,31.219,22.902,39.387,15.73
2015-06-24 21:00,31.011,22.718,39.250,15.84
2015-06-24 22:00,31.169,22.870,39.304,15.70
2015-06-25 00:00,31.249,22.821,39.843,16.20
2015-06-25 01:00,31.188,22.803,39.656,16.07
2015-06-25 02:00,31.196,22.895,39.317,15.68
2015-06-25 03:00,31.166,22.859,39.336,15.74
2015-06-25 04:00,31.176,22.867,39.348,15.74
2015-06-25 05:00,31.168,23.067,38.484,14.78
2015-06-25 06:00,31.179,23.122,38.301,14.56
2015-06-25 07:00,31.175,23.079,38.465,14.75
2015-06-25 09:00,31.190,23.065,38.588,14.87
2015-06-25 10:00,31.195,23.102,38.451,14.71
2015-06-25 11:00,31.190,23.123,38.339,14.59
2015-06-25 12:00,31.202,23.038,38.753,15.04
2015-06-25 13:00,31.182,22.873,39.345,15.73
2015-06-25 14:00,31.175,22.768,39.740,16.18
2015-06-25 15:00,31.167,22.631,40.252,16.76
2015-06-25 16:00,31.163,22.540,40.589,17.14
2015-06-25 17:00,31.139,22.464,40.787,17.39
2015-06-25 19:00,31.314,22.737,40.449,16.79
2015-06-25 20:00,31.289,22.766,40.231,16.58
2015-06-25 21:00,31.301,22.650,40.732,17.12
2015-06-25 22:00,31.310,22.599,40.969,17.37
2015-06-25 23:00,31.311,22.649,40.780,17.16
2015-06-26 00:00,31.312,22.733,40.456,16.80
2015-06-26 01:00,31.307,22.797,40.179,16.50
2015-06-26 02:00,31.277,22.743,40.271,16.64
2015-06-26 04:00,31.208,22.563,40.687,17.19
2015-06-26 05:00,31.184,22.549,40.641,17.17
2015-06-26 06:00,31.044,22.623,39.769,16.38
2015-06-26 07:00,30.836,22.546,39.201,16.01
2015-06-26 08:00,30.771,22.681,38.377,15.16
2015-06-26 09:00,30.617,22.533,38.327,15.30
2015-06-26 10:00,30.530,22.418,38.422,15.52
2015-06-26 11:00,30.567,22.455,38.428,15.48
2015-06-26 12:00,30.625,22.428,38.784,15.81
2015-06-26 14:00,30.499,22.331,38.641,15.81
2015-06-26 15:00,30.671,22.401,39.083,16.09
2015-06-26 16:00,30.774,22.449,39.325,16.23
2015-06-26 17:00,30.877,22.450,39.755,16.58
2015-06-26 18:00,30.854,22.486,39.515,16.34
2015-06-26 19:00,30.867,22.492,39.548,16.36
2015-06-26 20:00,30.833,22.481,39.446,16.29
2015-06-26 21:00,30.852,22.478,39.539,16.37
2015-06-26 23:00,30.866,22.493,39.537,16.35
2015-06-27 00:00,31.031,22.597,39.817,16.45
2015-06-27 01:00,31.066,22.608,39.919,16.52
2015-06-27 02:00,31.076,22.575,40.092,16.70
2015-06-27 03:00,31.050,22.550,40.080,16.72
2015-06-27 04:00,30.988,22.546,39.839,16.53
2015-06-27 05:00,31.073,22.582,40.053,16.66
2015-06-27 06:00,31.114,22.622,40.065,16.62
2015-06-27 07:00,31.143,22.669,39.999,16.51
2015-06-27 09:00,31.139,22.687,39.914,16.42
2015-06-27 10:00,31.129,22.704,39.804,16.31
2015-06-27 11:00,31.122,22.692,39.823,16.34
2015-06-27 12:00,31.112,22.671,39.865,16.40
2015-06-27 13:00,31.115,22.664,39.904,16.44
2015-06-27 14:00,31.122,22.642,40.020,16.56
2015-06-27 15:00,31.115,22.586,40.209,16.78
2015-06-27 16:00,31.031,22.464,40.336,17.03
2015-06-27 18:00,30.751,22.289,39.858,16.86
2015-06-27 19:00,30.522,22.204,39.238,16.46
2015-06-27 20:00,30.403,22.066,39.286,16.67
2015-06-27 21:00,30.440,22.112,39.258,16.59
2015-06-27 22:00,30.432,22.155,39.055,16.37
2015-06-27 23:00,30.661,22.323,39.355,16.41
2015-06-28 00:00,30.607,22.332,39.089,16.18
2015-06-28 01:00,30.665,22.385,39.120,16.14
2015-06-28 03:00,30.763,22.496,39.091,15.98
2015-06-28 04:00,30.854,22.566,39.195,15.98
2015-06-28 05:00,30.954,22.621,39.398,16.08
2015-06-28 06:00,30.854,22.658,38.823,15.56
2015-06-28 07:00,30.828,22.658,38.714,15.47
2015-06-28 08:00,30.835,22.700,38.572,15.30
2015-06-28 09:00,30.868,22.751,38.503,15.18
2015-06-28 10:00,30.922,22.752,38.732,15.37
2015-06-28 11:00,31.027,22.831,38.859,15.38
2015-06-28 13:00,31.111,22.955,38.704,15.10
2015-06-28 14:00,31.112,22.995,38.546,14.92
2015-06-28 15:00,31.131,23.093,38.212,14.52
2015-06-28 16:00,31.146,23.115,38.185,14.47
2015-06-28 17:00,31.205,23.192,38.117,14.32
2015-06-28 18:00,31.213,23.129,38.418,14.65
2015-06-28 19:00,31.250,23.092,38.735,14.96
2015-06-28 20:00,31.259,23.086,38.798,15.02
2015-06-28 22:00,,,,
2015-06-28 23:00,31.259,23.131,38.611,14.81
2015-06-29 00:00,31.243,23.192,38.283,14.46
2015-06-29 01:00,31.223,23.249,37.951,14.11
2015-06-29 02:00,,,,
2015-06-29 03:00,30.761,22.874,37.524,14.20
2015-06-29 04:00,30.766,22.875,37.538,14.21
2015-06-29 05:00,30.662,22.771,37.529,14.33
2015-06-29 06:00,30.908,23.110,37.151,13.59
2015-06-29 08:00,30.786,23.124,36.542,13.04
2015-06-29 09:00,30.597,22.868,36.823,13.60
2015-06-29 10:00,30.657,22.910,36.906,13.62